User: anonymous   Login
Location: Julian California
(33.0790°N, 116.6010°W)
Time: 13:36:24
(UTC-08:00)
Language:

Cosmos 2058 Rocket - Orbit

View from above orbital plane
View from above orbital plane
View from above satellite
View from above satellite

Ground track
Ground track

The orbit data is extracted from the following two-line orbital elements,

1 20466U 90010B   19047.86927194 +.00000062 +00000-0 +48166-5 0  9993
2 20466 082.5056 162.1249 0021661 133.1783 227.1246 14.81346960546699
Epoch (UTC): 16 February 2019 20:51:45
Eccentricity: 0.0021661
inclination: 82.5056°
perigee height: 610 km
apogee height: 640 km
right ascension of ascending node: 162.1249°
argument of perigee: 133.1783°
revolutions per day: 14.81346960
mean anomaly at epoch: 227.1246°
orbit number at epoch: 54669

The dashed part of the orbit path shows where the satellite is in the earth's shadow,  

DLR